Weather in Kubei

Ukraine / Odesa District     45°47′37″N   28°44′27″E
temp.,
°C
wind,
m/s
gust,
m/s
humid.,
%
clouds,
%
prec.,
mm/h
press.,
hPa
HPBL,
m
18 may, tue
tue1800:00+15s3480100 0.0 100454
03:00+13ssw3787100 0.0 1003160
06:00+14sw41090100 0.0 1002496
09:00+15wnw61170100 0.1 1004641
12:00+18w894996 0.0 10041253
15:00+16w7115462 0.0 1003674
18:00+15wsw61063100 0.4 1004575
21:00+14w81262100 0.4 1004811
19 may, wed
wed1900:00+13w81262100 0.0 1005698
03:00+11w71381100 1.0 1006646
06:00+12w61378100 1.4 1006551
09:00+14wnw8136966 1.4 1009692
12:00+19nw8104790 0.0 10101958
15:00+20wnw454691 0.0 10101253
18:00+21ene1242100 0.0 10101409
21:00+17e3560100 0.0 1010101
20 may, thu
thu2000:00+13e337947 0.0 101038
03:00+13ese2379100 0.0 100948
06:00+14se1170100 0.0 100919
09:00+17s2370100 0.1 1009432
12:00+18sse5663100 0.4 10091216
15:00+15sse4880100 4.6 1009464
18:00+13ssw238821 4.0 1009182
21:00+13sw2589100 4.0 1010224
21 may, fri
fri2100:00+12sw228987 0.0 101029
03:00+11wnw3495100 0.0 101066
06:00+11nw3596100 0.0 1010125
09:00+14nnw4580100 0.0 1011639
12:00+17nnw4566100 0.0 10111072
15:00+19n6659100 0.1 10111234
18:00+17n5771100 0.1 1012683
21:00+14n7118377 0.1 1013446
22 may, sat
sat2200:00+12nnw61192100 0.0 1014464
03:00+12nnw9148894 0.0 1013530
06:00+11nnw91588100 0.0 1013480
09:00+15n9127397 0.0 1014627
12:00+18n9116454 0.0 1014924
15:00+22n78548 0.0 10141279
18:00+22n775423 0.0 10141399
21:00+17nnw611750 0.0 1015269